Marrakech, Morocco

10:08 PM WET on June 25, 2017 (GMT +0000)
Marrakech | | Change Station

Elev 1529 ft 31.62 °N, 8.03 °W | Updated 8 minutes ago

Partly Cloudy
Partly Cloudy
90 °F
Feels Like 90 °F
N
8
Wind Variable Wind from NNE

Today
High -- | Low -- °F
--% Chance of Precip.
Yesterday
High -- | Low -- °F
Precip. -- in
Pressure 29.95 in
Visibility 6.2 miles
Clouds Scattered Clouds 10000 ft
Dew Point 45 °F
Humidity 21%
Rainfall 0.00 in
Snow Depth Not available.
5:28 AM 7:41 PM
Waxing Crescent, 5% visible
METAR GMMX 252200Z 03007KT 9999 SCT100 32/07 Q1014 NOSIG
Pressure 29.95 in
Visibility 6.2 miles
Clouds Scattered Clouds 10000 ft
Dew Point 45 °F
Humidity 21%
Rainfall 0.00 in
Snow Depth Not available.
5:28 AM 7:41 PM
Waxing Crescent, 5% visible
METAR GMMX 252200Z 03007KT 9999 SCT100 32/07 Q1014 NOSIG

Get Severe Weather Alerts

Thanks for signing up!

Be on the lookout for a verification email in your inbox.

You'll start receiving the daily forecast at 6 AM.

×

10-Day Weather Forecast

No radar image for this location.
×

Almanac

Astronomy

Jun. 25, 2017 Rise Set
Actual Time
Civil Twilight
Nautical Twilight
Astronomical Twilight
Moon
Length of Visible Light
Length of Day
Tomorrow will be .
, % of the Moon is Illuminated

Today's Extremes

Country Highs Country Lows

Community

WunderPhotos

Category 6

Welcome to Category 6. This is the collective home for Weather Underground's featured writeups by Dr. Jeff Masters (right), Bob Henson (left), Chris Burt, and other regular contributors.

Nearby

Air Quality

  Air Quality AQ Index Pollutant
Not available.

Snow Depth

Station Depth Elevation

Earthquake Activity

City Distance Mag. Time & Date
Minimum magnitude displayed is 2.5.

Coastal Water Temperatures

Place Temperature

Stations

Nearby Weather Stations

Station Location Temp. Windchill Dew Point Humidity Wind Precip. Elev Updated Type